This demonstration page uses our WeatherBlox Daily Observations layout. Learn more.

Left ArrowRight Arrow

38.20091, -84.87328

Hourly Observations for October 21, 2021

Temp ( °F °C ) Dew Point ( °F °C ) Humidity (%) Winds ( mph kmh ) Pressure ( in mb ) Visibility ( mi km ) Precip ( " mm )
12:53 am 00:53 Clear 58 14.4 53 11.7 84 84 SSE 3 6 30.06 1018 10 16 0.00 0.00
1:53 am 01:53 Clear 55 12.8 52 11.1 90 90 Calm 30.05 1018 10 16 0.00 0.00
2:53 am 02:53 Partly Cloudy 58 14.4 54 12.2 87 87 SSW 5 7 30.04 1017 10 16 0.00 0.00
3:53 am 03:53 Mostly Clear 59 15 55 12.8 87 87 S 6 9 30.02 1017 10 16 0.00 0.00
4:53 am 04:53 Mostly Cloudy 59 15 56 13.3 90 90 SSW 6 9 30.01 1016 10 16 0.00 0.00
5:53 am 05:53 Mostly Cloudy 61 16.1 56 13.3 84 84 S 6 9 30.00 1016 10 16 0.00 0.00
6:04 am 06:04 Partly Cloudy 60 15.6 57 13.9 90 90 S 7 11 30.00 1016 10 16 0.00 0.00
6:53 am 06:53 Clear 60 15.6 57 13.9 90 90 S 7 11 30.00 1016 10 16 0.00 0.00
7:53 am 07:53 Mostly Cloudy 62 16.7 59 15 90 90 SSW 9 15 29.98 1015 10 16 0.00 0.00
8:53 am 08:53 Cloudy 64 17.8 60 15.6 87 87 SSW 9 15 29.98 1015 10 16 0.00 0.00
9:45 am 09:45 Mostly Cloudy 66 18.9 61 16.1 84 84 SW 13 20 29.97 1015 10 16 0.00 0.00
9:53 am 09:53 Mostly Cloudy 66 18.9 61 16.1 84 84 SSW 13 20 29.98 1015 10 16 0.00 0.00
10:53 am 10:53 Cloudy 67 19.4 61 16.1 81 81 SW 10 17 29.97 1015 10 16 0.00 0.00
11:38 am 11:38 Cloudy 67 19.4 62 16.7 84 84 SW 13 20 29.95 1014 10 16 0.00 0.00
11:53 am 11:53 Cloudy 67 19.4 62 16.7 84 84 SSW 12 19 29.96 1015 10 16 0.00 0.00
12:37 pm 12:37 Cloudy 69 20.6 63 17.2 81 81 SSW 14 22 29.94 1014 10 16 0.00 0.00
12:53 pm 12:53 Cloudy 69 20.6 63 17.2 81 81 SSW 15 24 29.94 1014 10 16 0.00 0.00
1:53 pm 13:53 Partly Cloudy 73 22.8 62 16.7 69 69 SW 15 24 29.91 1013 10 16 0.00 0.00
2:53 pm 14:53 Mostly Sunny 74 23.3 58 14.4 57 57 SW 18 30 29.88 1012 10 16 0.00 0.00
3:53 pm 15:53 Mostly Sunny 75 23.9 51 10.6 43 43 W 14 22 29.87 1012 10 16 0.00 0.00
4:53 pm 16:53 Sunny 72 22.2 52 11.1 50 50 W 12 19 29.89 1012 10 16 0.00 0.00
5:53 pm 17:53 Sunny 68 20 49 9.4 51 51 WNW 14 22 29.93 1014 10 16 0.00 0.00
6:53 pm 18:53 Sunny 64 17.8 45 7.2 50 50 WNW 8 13 29.96 1014 10 16 0.00 0.00
7:53 pm 19:53 Clear 61 16.1 45 7.2 56 56 WNW 8 13 29.98 1015 10 16 0.00 0.00
8:53 pm 20:53 Clear 58 14.4 45 7.2 62 62 NW 7 11 30.01 1016 10 16 0.00 0.00
9:53 pm 21:53 Clear 56 13.3 46 7.8 70 70 NW 9 15 30.02 1017 10 16 0.00 0.00
10:53 pm 22:53 Clear 54 12.2 45 7.2 72 72 WNW 6 9 30.04 1017 10 16 0.00 0.00
11:53 pm 23:53 Clear 51 10.6 45 7.2 80 80 WNW 3 6 30.04 1017 10 16 0.00 0.00

Powered by AerisWeather